Andrews, TX

11:31 PM CST on December 15, 2019 (GMT -0600)
Andrews

Weather History for KE11 - October, 2019

Change the Weather History Date:

Wednesday, October 30, 2019

  Actual Average (KMAF) Record (KMAF)
Temperature  
Mean Temperature 32 °F -  
Max Temperature 39 °F 68 °F 90 °F (2016)
Min Temperature 24 °F 45 °F 24 °F (1993)
Degree Days  
Heating Degree Days 34    
Moisture  
Dew Point 29 °F    
Average Humidity 88    
Maximum Humidity 100    
Minimum Humidity 55    
Precipitation  
Precipitation 0.00 in - - ()
Sea Level Pressure  
Sea Level Pressure 30.21 in    
Wind  
Wind Speed 11 mph ()    
Max Wind Speed 20 mph    
Max Gust Speed 28 mph    
Visibility 7.3 miles    
Events      
Averages and records for this station are not official NWS values.
T = Trace of Precipitation, MM = Missing Value Source: Averaged Metar Reports

Daily Weather History Graph

Daily Weather History Graph

Search for Another Location

Airport or City:

Astronomy

Oct. 30, 2019 Rise Set
Actual Time 8:05 AM CDT 7:01 PM CDT
Civil Twilight 7:40 AM CDT 7:26 PM CDT
Nautical Twilight 7:11 AM CDT 7:55 PM CDT
Astronomical Twilight 6:42 AM CDT 8:24 PM CDT
Moon 10:44 AM CDT (10/30) 9:19 PM CDT (10/30)
Length of Visible Light 11h 46m
Length of Day
10h 56m
Waxing Crescent, 9% of the Moon is Illuminated
Oct 30
Waxing Crescent
Nov 4
First Quarter
Nov 12
Full
Nov 19
Last Quarter
Nov 26
New

Hourly Weather History & Observations

Time (CDT) Temp. Windchill Dew Point Humidity Pressure Visibility Wind Dir Wind Speed Gust Speed Precip Events Conditions
12:15 AM 32.5 °F 23.2 °F 32.5 °F 100% 30.03 in 4.0 mi NE 12.7 mph 16.1 mph N/A   Light Drizzle
12:35 AM 32.2 °F 22.7 °F 32.2 °F 100% 30.03 in 5.0 mi ENE 12.7 mph 18.4 mph N/A   Light Drizzle
12:55 AM 32.0 °F 22.5 °F 32.0 °F 100% 30.03 in 7.0 mi NE 12.7 mph 18.4 mph N/A   Light Drizzle
1:15 AM 32.0 °F 22.5 °F 32.0 °F 100% 30.04 in 4.0 mi NE 12.7 mph 16.1 mph N/A   Overcast
1:35 AM 32.0 °F 23.6 °F 32.0 °F 100% 30.04 in 4.0 mi NE 10.4 mph 18.4 mph N/A   Overcast
1:55 AM 31.6 °F 22.1 °F 31.6 °F 100% 30.05 in 3.0 mi NNE 12.7 mph 17.3 mph N/A   Light Freezing Rain
2:15 AM 32.0 °F 22.1 °F 32.0 °F 100% 30.05 in 3.0 mi NNE 13.8 mph - N/A   Light Drizzle
2:35 AM 31.8 °F 22.3 °F 31.8 °F 100% 30.07 in 4.0 mi NNE 12.7 mph 17.3 mph N/A   Light Freezing Rain
3:15 AM 32.0 °F 22.5 °F 32.0 °F 100% 30.07 in 4.0 mi NNE 12.7 mph - N/A   Light Drizzle
3:35 AM 32.0 °F 23.6 °F 32.0 °F 100% 30.07 in 3.0 mi NNE 10.4 mph - N/A   Overcast
3:55 AM 32.0 °F 24.2 °F 32.0 °F 100% 30.08 in 2.5 mi NNE 9.2 mph - N/A   Drizzle
4:15 AM 32.0 °F 23.6 °F 32.0 °F 100% 30.07 in 3.0 mi NNE 10.4 mph - N/A   Light Drizzle
4:35 AM 32.0 °F 22.5 °F 32.0 °F 100% 30.07 in 4.0 mi NNE 12.7 mph - N/A   Light Drizzle
5:15 AM 32.0 °F 24.8 °F 32.0 °F 100% 30.08 in 3.0 mi NNE 8.1 mph - N/A   Overcast
5:35 AM 32.0 °F 23.0 °F 32.0 °F 100% 30.08 in 3.0 mi NNE 11.5 mph - N/A   Overcast
5:55 AM 32.0 °F 24.8 °F 32.0 °F 100% 30.09 in 5.0 mi NNE 8.1 mph - N/A   Overcast
6:15 AM 32.0 °F 24.8 °F 32.0 °F 100% 30.10 in 4.0 mi NNE 8.1 mph - N/A   Overcast
6:35 AM 32.0 °F 23.6 °F 32.0 °F 100% 30.10 in 4.0 mi NNE 10.4 mph 16.1 mph N/A   Overcast
6:55 AM 32.0 °F 24.8 °F 32.0 °F 100% 30.11 in 4.0 mi NNE 8.1 mph - N/A   Overcast
7:15 AM 32.0 °F 23.6 °F 32.0 °F 100% 30.11 in 4.0 mi NNE 10.4 mph - N/A   Overcast
7:35 AM 32.0 °F 24.2 °F 32.0 °F 100% 30.12 in 3.0 mi NNE 9.2 mph - N/A   Overcast
7:55 AM 32.0 °F 24.8 °F 32.0 °F 100% 30.13 in 4.0 mi NNE 8.1 mph - N/A   Overcast
8:15 AM 32.0 °F 23.6 °F 32.0 °F 100% 30.13 in 4.0 mi NNE 10.4 mph - N/A   Overcast
8:35 AM 32.0 °F 23.6 °F 32.0 °F 100% 30.14 in 4.0 mi NNE 10.4 mph - N/A   Overcast
8:55 AM 32.0 °F 23.6 °F 32.0 °F 100% 30.16 in 4.0 mi NNE 10.4 mph - N/A   Overcast
9:15 AM 32.0 °F 23.6 °F 32.0 °F 100% 30.17 in 7.0 mi NNE 10.4 mph - N/A   Overcast
9:35 AM 32.5 °F 24.8 °F 32.5 °F 100% 30.18 in 5.0 mi NNE 9.2 mph - N/A   Overcast
9:55 AM 32.4 °F 24.0 °F 32.4 °F 100% 30.19 in 4.0 mi North 10.4 mph - N/A   Overcast
10:15 AM 32.7 °F 23.4 °F 32.7 °F 100% 30.19 in 7.0 mi NNE 12.7 mph - N/A   Overcast
10:35 AM 33.3 °F 24.6 °F 33.3 °F 100% 30.20 in 7.0 mi NNE 11.5 mph - N/A   Overcast
10:55 AM 33.6 °F 25.6 °F 33.6 °F 100% 30.21 in 7.0 mi NNE 10.4 mph - N/A   Overcast
11:15 AM 33.8 °F 26.4 °F 33.8 °F 100% 30.21 in 7.0 mi North 9.2 mph - N/A   Overcast
11:35 AM 34.0 °F 25.5 °F 34.0 °F 100% 30.22 in 7.0 mi NNE 11.5 mph - N/A   Overcast
12:15 PM 34.7 °F 25.1 °F 34.7 °F 100% 30.24 in 10.0 mi North 15.0 mph 18.4 mph N/A   Overcast
12:35 PM 35.1 °F 25.9 °F 35.1 °F 100% 30.24 in 10.0 mi North 13.8 mph - N/A   Overcast
12:55 PM 34.7 °F 25.1 °F 34.7 °F 100% 30.24 in 7.0 mi North 15.0 mph 19.6 mph N/A   Overcast
1:15 PM 35.1 °F 25.5 °F 34.7 °F 99% 30.24 in 10.0 mi North 15.0 mph - N/A   Overcast
1:35 PM 34.7 °F 25.5 °F 33.4 °F 95% 30.24 in 10.0 mi NNE 13.8 mph 20.7 mph N/A   Overcast
1:55 PM 37.2 °F 28.3 °F 32.9 °F 84% 30.23 in 10.0 mi North 15.0 mph - N/A   Overcast
2:15 PM 36.0 °F 26.7 °F 32.2 °F 86% 30.23 in 10.0 mi North 15.0 mph - N/A   Overcast
2:35 PM 35.8 °F 27.3 °F 32.0 °F 86% 30.24 in 10.0 mi North 12.7 mph - N/A   Overcast
2:55 PM 36.7 °F 28.0 °F 32.0 °F 83% 30.23 in 10.0 mi North 13.8 mph - N/A   Overcast
3:15 PM 37.4 °F 27.8 °F 30.7 °F 77% 30.23 in 10.0 mi North 17.3 mph 20.7 mph N/A   Overcast
3:35 PM 36.7 °F 26.6 °F 28.6 °F 72% 30.24 in 10.0 mi North 18.4 mph 27.6 mph N/A   Overcast
3:55 PM 36.7 °F 26.6 °F 28.8 °F 73% 30.25 in 10.0 mi North 18.4 mph 23.0 mph N/A   Overcast
4:15 PM 36.5 °F 26.3 °F 27.7 °F 70% 30.26 in 10.0 mi North 18.4 mph 24.2 mph N/A   Overcast
4:35 PM 37.4 °F 29.8 °F 28.0 °F 69% 30.26 in 10.0 mi North 11.5 mph - N/A   Mostly Cloudy
4:55 PM 37.0 °F 27.4 °F 27.3 °F 68% 30.28 in 10.0 mi North 17.3 mph 21.9 mph N/A   Mostly Cloudy
5:15 PM 39.7 °F 31.2 °F 27.5 °F 62% 30.28 in 10.0 mi NNE 16.1 mph 21.9 mph N/A   Overcast
5:35 PM 37.8 °F 30.2 °F 26.4 °F 64% 30.28 in 10.0 mi NNE 11.5 mph 19.6 mph N/A   Mostly Cloudy
5:55 PM 39.6 °F 30.0 °F 25.3 °F 57% 30.28 in 10.0 mi North 19.6 mph 23.0 mph N/A   Scattered Clouds
6:15 PM 38.8 °F 29.7 °F 23.7 °F 55% 30.30 in 10.0 mi North 17.3 mph 25.3 mph N/A   Clear
6:35 PM 37.0 °F 28.1 °F 23.4 °F 58% 30.30 in 10.0 mi North 15.0 mph 21.9 mph N/A   Clear
6:55 PM 35.6 °F 25.9 °F 23.4 °F 61% 30.30 in 10.0 mi North 16.1 mph 19.6 mph N/A   Clear
7:15 PM 33.8 °F 25.8 °F 22.6 °F 64% 30.32 in 10.0 mi North 10.4 mph - N/A   Clear
7:35 PM 32.4 °F 24.6 °F 21.9 °F 65% 30.33 in 10.0 mi North 9.2 mph - N/A   Clear
7:55 PM 31.1 °F 23.7 °F 22.1 °F 69% 30.33 in 10.0 mi North 8.1 mph - N/A   Clear
8:15 PM 28.4 °F 22.2 °F 21.9 °F 77% 30.34 in 10.0 mi North 5.8 mph - N/A   Clear
8:35 PM 27.3 °F 19.9 °F 21.7 °F 80% 30.36 in 10.0 mi North 6.9 mph - N/A   Clear
8:55 PM 27.1 °F 18.2 °F 22.3 °F 82% 30.36 in 10.0 mi North 9.2 mph - N/A   Clear
9:15 PM 29.1 °F 20.6 °F 22.8 °F 77% 30.37 in 10.0 mi North 9.2 mph - N/A   Clear
9:35 PM 27.7 °F 19.6 °F 22.5 °F 81% 30.38 in 10.0 mi North 8.1 mph - N/A   Clear
9:55 PM 27.0 °F 18.0 °F 22.1 °F 82% 30.38 in 10.0 mi North 9.2 mph - N/A   Clear
10:15 PM 26.6 °F 17.5 °F 21.9 °F 82% 30.40 in 10.0 mi North 9.2 mph - N/A   Clear
10:35 PM 26.6 °F 17.5 °F 21.4 °F 81% 30.41 in 10.0 mi North 9.2 mph - N/A   Clear
10:55 PM 25.9 °F 16.0 °F 21.0 °F 82% 30.42 in 10.0 mi North 10.4 mph - N/A   Clear
11:15 PM 25.5 °F 16.2 °F 20.7 °F 82% 30.42 in 10.0 mi North 9.2 mph - N/A   Clear
11:35 PM 24.8 °F 15.3 °F 20.3 °F 83% 30.42 in 10.0 mi North 9.2 mph - N/A   Clear
11:55 PM 24.8 °F 16.9 °F 19.8 °F 81% 30.42 in 10.0 mi North 6.9 mph - N/A   Clear